Location: Zagreb
(45.8000°N, 16.0000°E)
Time: 21:43:41
(UTC+01:00)

Tiros 1 despin weight - Pass Details

Date: 04 February 2020
Orbit: 594 x 642 km, 48.2° (Epoch: 24 February)

Event Time Altitude Azimuth Distance (km) Brightness Sun altitude
Rises 08:19:46 0° 246° (WSW) 2,828 ? 9.1°
Reaches altitude 10° 08:22:03 10° 245° (WSW) 1,932 ? 9.4°
Maximum altitude 08:26:28 80° 160° (SSE) 617 ? 10.0°
Drops below altitude 10° 08:30:59 10° 73° (ENE) 1,963 ? 10.6°
Sets 08:33:18 0° 72° (ENE) 2,877 ? 11.0°
